Location: Le Petit-Vavre
(46.5081°N, 1.5239°E)
Time: 18:38:30
(UTC+00:00)

Cosmos 2360 Rocket - Pass Details

Date: 03 March 2021
Orbit: 833 x 846 km, 71.0° (Epoch: 20 April)

Event Time Altitude Azimuth Distance (km) Brightness Sun altitude
Rises 18:36:25 0° 186° (S) 3,373 5.4 -10.0°
Reaches altitude 10° 18:38:55 10° 181° (S) 2,445 4.6 -10.4°
Maximum altitude 18:44:16 48° 109° (ESE) 1,094 2.4 -11.3°
Drops below altitude 10° 18:49:40 10° 37° (NE) 2,470 4.3 -12.3°
Sets 18:52:12 0° 31° (NNE) 3,411 5.1 -12.7°
